Precipitable_Water
0.58 0.57 0.56 0.54 0.53 0.52 0.52 0.51 0.50 0.49 0.48 0.47 0.47 0.47 0.47 0.46 0.46 0.46 0.46 0.46 0.46 0.47 0.48 0.48 0.49 0.48 0.46 0.46 0.45 0.44 0.43 0.32 0.25 0.22 0.21 0.20 0.23 0.31 0.34 0.39 0.45 0.45 0.39 0.34 0.29 0.25 0.20 0.20 0.18 0.25 0.31 0.35 0.33 0.29 0.31 0.30 0.34 0.32 0.22 0.18 0.15 0.18 0.18 0.19 0.19 0.18 0.19 0.20 0.21 0.21 0.22 0.20 0.19 0.20 0.22 0.23 0.36 0.42 0.56 0.56 0.76 0.86 0.88 0.99 1.10 1.16 1.21 1.34
0.59 0.57 0.56 0.55 0.54 0.53 0.52 0.51 0.50 0.49 0.48 0.47 0.47 0.46 0.46 0.45 0.45 0.45 0.46 0.46 0.45 0.46 0.46 0.46 0.46 0.46 0.46 0.44 0.44 0.43 0.38 0.30 0.22 0.22 0.19 0.22 0.24 0.25 0.32 0.39 0.44 0.45 0.42 0.30 0.24 0.22 0.19 0.17 0.19 0.27 0.32 0.26 0.36 0.27 0.31 0.26 0.32 0.24 0.20 0.19 0.16 0.19 0.19 0.22 0.21 0.21 0.19 0.19 0.20 0.22 0.22 0.21 0.20 0.20 0.22 0.21 0.24 0.35 0.38 0.51 0.65 0.69 0.85 0.97 1.01 1.12 1.18 1.24
0.60 0.58 0.58 0.56 0.55 0.54 0.53 0.52 0.51 0.50 0.49 0.48 0.47 0.46 0.45 0.45 0.45 0.45 0.45 0.45 0.45 0.44 0.45 0.45 0.45 0.44 0.44 0.44 0.42 0.40 0.35 0.24 0.23 0.16 0.16 0.20 0.22 0.23 0.26 0.40 0.45 0.45 0.37 0.24 0.24 0.23 0.19 0.17 0.20 0.26 0.30 0.26 0.29 0.25 0.26 0.26 0.27 0.25 0.21 0.17 0.18 0.21 0.21 0.22 0.22 0.21 0.21 0.21 0.20 0.20 0.21 0.21 0.21 0.20 0.22 0.20 0.21 0.30 0.26 0.38 0.55 0.59 0.71 0.85 0.94 1.01 1.10 1.19
0.61 0.58 0.57 0.56 0.55 0.54 0.53 0.52 0.51 0.50 0.48 0.47 0.46 0.45 0.45 0.44 0.44 0.44 0.44 0.45 0.44 0.43 0.44 0.44 0.43 0.43 0.43 0.42 0.42 0.39 0.30 0.23 0.15 0.14 0.21 0.36 0.33 0.26 0.27 0.34 0.44 0.44 0.39 0.32 0.26 0.24 0.27 0.25 0.24 0.28 0.29 0.24 0.25 0.30 0.23 0.26 0.22 0.23 0.20 0.18 0.20 0.22 0.20 0.21 0.22 0.22 0.22 0.22 0.21 0.21 0.22 0.20 0.21 0.20 0.21 0.20 0.18 0.27 0.32 0.41 0.44 0.58 0.72 0.87 1.00 1.00 1.07 1.11
0.61 0.60 0.58 0.57 0.56 0.55 0.54 0.53 0.51 0.50 0.48 0.47 0.46 0.45 0.44 0.44 0.44 0.43 0.43 0.43 0.44 0.43 0.43 0.44 0.43 0.43 0.41 0.41 0.38 0.37 0.23 0.13 0.18 0.36 0.51 0.46 0.40 0.32 0.31 0.32 0.42 0.44 0.38 0.32 0.27 0.26 0.30 0.31 0.32 0.32 0.31 0.23 0.25 0.26 0.23 0.25 0.23 0.22 0.18 0.22 0.22 0.22 0.20 0.21 0.22 0.22 0.22 0.22 0.22 0.21 0.20 0.19 0.21 0.20 0.20 0.19 0.16 0.16 0.26 0.42 0.67 0.67 0.69 0.70 0.77 0.90 0.99 1.01
0.60 0.59 0.58 0.58 0.56 0.56 0.54 0.53 0.52 0.50 0.49 0.47 0.46 0.45 0.44 0.44 0.42 0.43 0.42 0.42 0.42 0.43 0.43 0.44 0.43 0.41 0.41 0.38 0.36 0.32 0.18 0.11 0.35 0.42 0.51 0.51 0.42 0.36 0.35 0.37 0.45 0.44 0.37 0.29 0.24 0.25 0.33 0.34 0.32 0.27 0.25 0.26 0.23 0.21 0.22 0.23 0.24 0.16 0.19 0.22 0.23 0.23 0.20 0.21 0.21 0.21 0.22 0.21 0.20 0.20 0.21 0.22 0.20 0.19 0.21 0.20 0.18 0.19 0.28 0.48 0.70 0.76 0.76 0.78 0.81 0.83 0.85 0.92
0.61 0.59 0.59 0.58 0.57 0.56 0.55 0.53 0.52 0.50 0.49 0.47 0.46 0.45 0.44 0.43 0.42 0.42 0.42 0.42 0.42 0.43 0.43 0.44 0.43 0.43 0.39 0.37 0.38 0.28 0.16 0.14 0.31 0.58 0.54 0.56 0.52 0.43 0.41 0.44 0.46 0.38 0.32 0.25 0.23 0.25 0.32 0.33 0.32 0.27 0.25 0.24 0.24 0.23 0.23 0.24 0.22 0.19 0.17 0.21 0.22 0.22 0.21 0.22 0.22 0.22 0.21 0.21 0.21 0.22 0.22 0.20 0.19 0.17 0.20 0.19 0.20 0.20 0.30 0.66 0.76 0.85 0.80 0.76 0.76 0.82 0.81 0.90
0.61 0.60 0.59 0.57 0.55 0.54 0.53 0.52 0.51 0.50 0.49 0.47 0.46 0.45 0.44 0.44 0.43 0.41 0.41 0.41 0.42 0.42 0.43 0.43 0.45 0.43 0.41 0.32 0.24 0.19 0.22 0.15 0.23 0.36 0.51 0.55 0.54 0.54 0.48 0.44 0.38 0.34 0.27 0.22 0.22 0.26 0.33 0.31 0.28 0.31 0.27 0.22 0.21 0.23 0.24 0.23 0.23 0.19 0.18 0.20 0.21 0.21 0.22 0.22 0.21 0.21 0.21 0.20 0.22 0.21 0.20 0.19 0.19 0.18 0.18 0.17 0.19 0.20 0.54 0.72 0.79 0.79 0.80 0.80 0.75 0.75 0.82 0.85
0.60 0.58 0.57 0.56 0.54 0.53 0.52 0.52 0.51 0.50 0.48 0.47 0.45 0.45 0.45 0.44 0.42 0.41 0.40 0.41 0.41 0.42 0.42 0.44 0.43 0.44 0.44 0.35 0.23 0.16 0.14 0.18 0.28 0.32 0.48 0.51 0.50 0.48 0.44 0.34 0.35 0.29 0.25 0.23 0.24 0.30 0.34 0.32 0.34 0.33 0.22 0.21 0.26 0.23 0.25 0.22 0.19 0.19 0.19 0.19 0.19 0.19 0.20 0.21 0.21 0.20 0.19 0.19 0.20 0.19 0.18 0.19 0.18 0.19 0.16 0.16 0.15 0.21 0.62 0.70 0.71 0.74 0.69 0.71 0.74 0.76 0.79 0.85
0.59 0.57 0.56 0.56 0.54 0.52 0.51 0.51 0.50 0.49 0.48 0.47 0.46 0.45 0.44 0.43 0.41 0.41 0.39 0.40 0.41 0.42 0.43 0.43 0.43 0.44 0.35 0.31 0.25 0.13 0.15 0.35 0.36 0.45 0.49 0.50 0.51 0.44 0.39 0.34 0.33 0.30 0.25 0.21 0.25 0.33 0.32 0.33 0.33 0.35 0.33 0.27 0.30 0.26 0.28 0.25 0.21 0.22 0.21 0.20 0.20 0.20 0.19 0.20 0.19 0.19 0.20 0.19 0.19 0.16 0.16 0.16 0.17 0.16 0.13 0.16 0.16 0.24 0.55 0.63 0.69 0.63 0.60 0.67 0.71 0.76 0.81 0.85
0.57 0.56 0.55 0.53 0.53 0.52 0.51 0.50 0.49 0.48 0.48 0.47 0.46 0.45 0.44 0.43 0.41 0.40 0.39 0.38 0.41 0.42 0.43 0.43 0.44 0.38 0.30 0.35 0.20 0.13 0.30 0.47 0.61 0.60 0.52 0.50 0.48 0.44 0.38 0.35 0.32 0.29 0.25 0.21 0.25 0.33 0.37 0.40 0.42 0.41 0.34 0.28 0.26 0.25 0.25 0.24 0.24 0.21 0.20 0.19 0.18 0.19 0.20 0.20 0.20 0.19 0.20 0.18 0.18 0.17 0.16 0.17 0.17 0.15 0.13 0.16 0.17 0.35 0.48 0.61 0.62 0.61 0.61 0.65 0.72 0.74 0.84 0.87
0.55 0.57 0.54 0.53 0.52 0.51 0.50 0.49 0.48 0.48 0.47 0.47 0.45 0.44 0.43 0.43 0.41 0.40 0.38 0.38 0.39 0.43 0.44 0.45 0.43 0.39 0.32 0.27 0.22 0.15 0.30 0.56 0.67 0.65 0.58 0.48 0.42 0.41 0.39 0.34 0.30 0.29 0.25 0.19 0.28 0.39 0.44 0.44 0.44 0.39 0.26 0.26 0.22 0.25 0.24 0.26 0.23 0.21 0.20 0.15 0.16 0.17 0.16 0.17 0.17 0.18 0.19 0.18 0.18 0.19 0.18 0.15 0.16 0.14 0.15 0.16 0.17 0.29 0.45 0.55 0.59 0.60 0.58 0.61 0.68 0.75 0.80 0.82
0.56 0.56 0.54 0.53 0.52 0.51 0.50 0.50 0.49 0.48 0.47 0.46 0.44 0.43 0.43 0.42 0.41 0.39 0.37 0.36 0.40 0.44 0.47 0.47 0.42 0.39 0.29 0.18 0.21 0.22 0.35 0.50 0.54 0.51 0.58 0.55 0.46 0.42 0.37 0.31 0.29 0.30 0.27 0.22 0.30 0.40 0.45 0.46 0.44 0.36 0.34 0.27 0.24 0.20 0.23 0.24 0.21 0.21 0.19 0.17 0.15 0.15 0.13 0.15 0.16 0.17 0.17 0.17 0.18 0.19 0.12 0.13 0.15 0.15 0.16 0.17 0.17 0.27 0.42 0.45 0.53 0.53 0.56 0.61 0.68 0.70 0.78 0.82
0.55 0.56 0.55 0.53 0.53 0.51 0.50 0.50 0.49 0.48 0.46 0.45 0.44 0.43 0.41 0.41 0.39 0.38 0.36 0.36 0.42 0.45 0.48 0.51 0.45 0.36 0.24 0.17 0.21 0.27 0.28 0.29 0.35 0.40 0.39 0.48 0.49 0.34 0.30 0.30 0.34 0.29 0.28 0.27 0.36 0.44 0.43 0.43 0.39 0.33 0.32 0.26 0.22 0.26 0.22 0.20 0.20 0.17 0.18 0.17 0.14 0.13 0.11 0.14 0.15 0.16 0.14 0.17 0.19 0.19 0.13 0.14 0.15 0.16 0.17 0.17 0.18 0.28 0.35 0.42 0.48 0.52 0.54 0.60 0.67 0.71 0.72 0.77
0.54 0.56 0.55 0.53 0.52 0.51 0.50 0.50 0.49 0.47 0.46 0.44 0.43 0.41 0.40 0.38 0.38 0.36 0.35 0.38 0.43 0.50 0.53 0.56 0.44 0.29 0.17 0.17 0.26 0.30 0.37 0.40 0.32 0.33 0.36 0.38 0.39 0.30 0.23 0.29 0.34 0.30 0.26 0.34 0.40 0.43 0.43 0.41 0.35 0.28 0.25 0.27 0.25 0.21 0.18 0.17 0.17 0.17 0.14 0.12 0.14 0.12 0.12 0.14 0.15 0.16 0.14 0.17 0.19 0.18 0.14 0.14 0.15 0.16 0.17 0.18 0.18 0.24 0.31 0.38 0.45 0.52 0.52 0.55 0.62 0.69 0.68 0.71
0.55 0.56 0.56 0.53 0.52 0.51 0.49 0.49 0.49 0.47 0.46 0.45 0.42 0.40 0.38 0.36 0.35 0.34 0.37 0.39 0.45 0.51 0.53 0.42 0.36 0.29 0.20 0.14 0.16 0.33 0.35 0.30 0.28 0.35 0.38 0.38 0.39 0.27 0.26 0.29 0.36 0.38 0.37 0.37 0.40 0.41 0.41 0.36 0.29 0.26 0.24 0.23 0.21 0.18 0.16 0.14 0.15 0.16 0.14 0.13 0.12 0.12 0.12 0.13 0.16 0.17 0.18 0.17 0.18 0.17 0.15 0.16 0.15 0.16 0.17 0.18 0.17 0.22 0.26 0.32 0.42 0.44 0.50 0.56 0.61 0.64 0.65 0.69
0.54 0.54 0.54 0.53 0.52 0.51 0.50 0.49 0.49 0.47 0.46 0.44 0.42 0.38 0.35 0.33 0.33 0.35 0.38 0.46 0.46 0.49 0.52 0.41 0.40 0.36 0.14 0.24 0.32 0.25 0.27 0.27 0.31 0.32 0.37 0.41 0.39 0.30 0.29 0.33 0.35 0.37 0.38 0.37 0.37 0.37 0.37 0.29 0.28 0.25 0.24 0.21 0.20 0.18 0.13 0.12 0.12 0.13 0.14 0.13 0.14 0.12 0.14 0.13 0.17 0.18 0.19 0.18 0.16 0.18 0.16 0.16 0.17 0.17 0.18 0.19 0.18 0.17 0.24 0.32 0.36 0.42 0.53 0.59 0.62 0.60 0.60 0.62
0.54 0.55 0.55 0.53 0.52 0.51 0.50 0.49 0.48 0.47 0.45 0.44 0.41 0.35 0.29 0.30 0.36 0.36 0.39 0.43 0.47 0.49 0.46 0.54 0.48 0.29 0.17 0.27 0.20 0.19 0.30 0.30 0.27 0.32 0.36 0.42 0.38 0.35 0.34 0.30 0.35 0.36 0.35 0.32 0.35 0.29 0.31 0.25 0.25 0.20 0.20 0.20 0.18 0.15 0.12 0.09 0.11 0.12 0.13 0.14 0.15 0.17 0.17 0.15 0.16 0.18 0.19 0.18 0.17 0.17 0.17 0.17 0.18 0.17 0.18 0.18 0.20 0.17 0.24 0.29 0.35 0.41 0.54 0.59 0.59 0.56 0.55 0.57
0.54 0.53 0.54 0.53 0.52 0.51 0.50 0.49 0.47 0.47 0.45 0.44 0.40 0.35 0.35 0.39 0.44 0.45 0.36 0.37 0.31 0.25 0.19 0.23 0.27 0.13 0.17 0.16 0.23 0.29 0.29 0.32 0.30 0.32 0.33 0.37 0.38 0.41 0.38 0.38 0.34 0.30 0.26 0.25 0.27 0.26 0.26 0.23 0.21 0.18 0.15 0.15 0.15 0.15 0.13 0.13 0.14 0.14 0.17 0.17 0.17 0.16 0.16 0.17 0.18 0.21 0.21 0.17 0.16 0.16 0.15 0.17 0.18 0.20 0.19 0.19 0.23 0.24 0.31 0.34 0.38 0.43 0.51 0.51 0.51 0.52 0.55 0.57
0.54 0.53 0.53 0.53 0.52 0.52 0.50 0.49 0.48 0.47 0.46 0.40 0.34 0.26 0.31 0.33 0.42 0.42 0.47 0.41 0.25 0.19 0.20 0.25 0.24 0.19 0.28 0.29 0.26 0.35 0.38 0.39 0.29 0.26 0.28 0.35 0.39 0.38 0.37 0.35 0.31 0.28 0.25 0.19 0.22 0.23 0.25 0.17 0.14 0.12 0.13 0.15 0.16 0.16 0.15 0.15 0.16 0.17 0.18 0.17 0.16 0.17 0.17 0.19 0.19 0.23 0.24 0.17 0.16 0.17 0.17 0.18 0.20 0.20 0.20 0.20 0.20 0.27 0.34 0.44 0.45 0.45 0.47 0.49 0.51 0.50 0.57 0.61
0.55 0.54 0.53 0.53 0.53 0.52 0.51 0.49 0.48 0.47 0.47 0.42 0.34 0.22 0.17 0.34 0.30 0.29 0.38 0.38 0.38 0.35 0.26 0.27 0.33 0.27 0.23 0.30 0.35 0.36 0.32 0.32 0.31 0.27 0.23 0.34 0.39 0.36 0.32 0.32 0.28 0.21 0.21 0.21 0.19 0.26 0.22 0.16 0.13 0.12 0.12 0.13 0.15 0.17 0.16 0.15 0.15 0.16 0.17 0.16 0.16 0.17 0.16 0.18 0.20 0.24 0.22 0.17 0.17 0.18 0.18 0.19 0.20 0.21 0.22 0.22 0.19 0.19 0.23 0.31 0.39 0.46 0.46 0.46 0.44 0.48 0.55 0.66
0.55 0.54 0.53 0.53 0.53 0.52 0.52 0.50 0.48 0.47 0.47 0.41 0.32 0.20 0.29 0.39 0.43 0.46 0.37 0.26 0.35 0.40 0.37 0.32 0.35 0.29 0.31 0.36 0.40 0.43 0.38 0.34 0.30 0.28 0.25 0.32 0.36 0.29 0.31 0.28 0.24 0.17 0.20 0.22 0.22 0.22 0.16 0.12 0.12 0.12 0.13 0.14 0.14 0.15 0.16 0.14 0.14 0.15 0.16 0.17 0.16 0.17 0.19 0.20 0.23 0.24 0.21 0.19 0.17 0.20 0.19 0.20 0.21 0.21 0.22 0.21 0.20 0.20 0.20 0.26 0.32 0.41 0.47 0.47 0.48 0.50 0.59 0.67
0.56 0.57 0.55 0.53 0.53 0.52 0.52 0.51 0.47 0.45 0.39 0.31 0.24 0.22 0.30 0.45 0.44 0.45 0.39 0.36 0.29 0.36 0.35 0.32 0.28 0.26 0.25 0.36 0.42 0.45 0.33 0.29 0.26 0.26 0.24 0.28 0.33 0.30 0.31 0.26 0.23 0.21 0.21 0.22 0.19 0.19 0.15 0.13 0.13 0.16 0.15 0.13 0.13 0.13 0.13 0.13 0.14 0.15 0.17 0.17 0.15 0.17 0.18 0.17 0.23 0.24 0.22 0.21 0.20 0.21 0.20 0.21 0.22 0.23 0.22 0.22 0.22 0.23 0.25 0.25 0.33 0.38 0.40 0.43 0.44 0.49 0.56 0.61
0.56 0.56 0.56 0.54 0.53 0.52 0.52 0.49 0.46 0.40 0.38 0.34 0.28 0.30 0.35 0.45 0.46 0.46 0.38 0.28 0.24 0.27 0.30 0.32 0.31 0.29 0.26 0.28 0.41 0.37 0.31 0.30 0.29 0.26 0.28 0.26 0.27 0.31 0.29 0.26 0.22 0.22 0.19 0.21 0.21 0.18 0.13 0.14 0.18 0.17 0.16 0.14 0.11 0.12 0.12 0.12 0.13 0.17 0.18 0.18 0.18 0.20 0.23 0.22 0.23 0.25 0.24 0.23 0.24 0.22 0.20 0.20 0.22 0.20 0.22 0.23 0.25 0.28 0.33 0.30 0.29 0.47 0.56 0.60 0.63 0.63 0.61 0.57
0.55 0.55 0.57 0.55 0.53 0.54 0.50 0.48 0.35 0.37 0.41 0.41 0.42 0.49 0.53 0.58 0.59 0.53 0.37 0.27 0.27 0.22 0.29 0.29 0.35 0.35 0.29 0.43 0.49 0.37 0.34 0.37 0.34 0.32 0.28 0.25 0.26 0.28 0.24 0.28 0.24 0.19 0.19 0.22 0.23 0.20 0.21 0.24 0.25 0.21 0.19 0.17 0.14 0.13 0.15 0.15 0.14 0.17 0.21 0.22 0.21 0.22 0.24 0.23 0.24 0.23 0.22 0.20 0.22 0.21 0.16 0.17 0.21 0.22 0.22 0.23 0.30 0.30 0.37 0.33 0.33 0.33 0.41 0.52 0.55 0.60 0.67 0.75
0.55 0.54 0.56 0.55 0.54 0.52 0.51 0.34 0.35 0.45 0.40 0.40 0.45 0.51 0.53 0.57 0.59 0.50 0.36 0.25 0.17 0.26 0.30 0.19 0.29 0.21 0.36 0.33 0.40 0.40 0.39 0.33 0.38 0.34 0.31 0.27 0.28 0.22 0.23 0.22 0.23 0.17 0.18 0.22 0.22 0.22 0.24 0.27 0.27 0.25 0.23 0.21 0.19 0.16 0.16 0.17 0.15 0.16 0.20 0.25 0.24 0.23 0.23 0.23 0.22 0.21 0.19 0.16 0.20 0.23 0.15 0.15 0.20 0.20 0.22 0.27 0.28 0.34 0.39 0.39 0.45 0.48 0.49 0.50 0.53 0.56 0.58 0.62
0.56 0.56 0.57 0.55 0.54 0.52 0.36 0.26 0.46 0.48 0.38 0.43 0.51 0.52 0.56 0.54 0.59 0.47 0.30 0.23 0.19 0.24 0.21 0.28 0.22 0.26 0.25 0.31 0.35 0.37 0.24 0.28 0.38 0.37 0.33 0.34 0.26 0.27 0.18 0.18 0.19 0.20 0.22 0.25 0.23 0.19 0.27 0.27 0.28 0.28 0.27 0.24 0.21 0.17 0.18 0.19 0.17 0.16 0.23 0.24 0.23 0.22 0.21 0.22 0.22 0.21 0.20 0.22 0.22 0.22 0.19 0.15 0.16 0.20 0.28 0.33 0.34 0.37 0.37 0.41 0.43 0.45 0.53 0.55 0.55 0.62 0.65 0.64
0.56 0.57 0.56 0.54 0.51 0.51 0.39 0.39 0.42 0.41 0.44 0.49 0.56 0.55 0.55 0.54 0.55 0.48 0.30 0.19 0.14 0.31 0.22 0.26 0.25 0.41 0.28 0.30 0.35 0.28 0.25 0.32 0.27 0.31 0.34 0.35 0.34 0.28 0.21 0.18 0.17 0.18 0.21 0.24 0.15 0.21 0.26 0.25 0.26 0.25 0.25 0.25 0.23 0.22 0.21 0.21 0.19 0.19 0.23 0.22 0.21 0.20 0.21 0.22 0.21 0.20 0.20 0.19 0.17 0.18 0.21 0.15 0.15 0.23 0.40 0.39 0.34 0.39 0.41 0.45 0.47 0.50 0.57 0.60 0.63 0.65 0.71 0.75
0.56 0.57 0.55 0.52 0.50 0.49 0.47 0.42 0.48 0.46 0.52 0.58 0.59 0.56 0.53 0.54 0.46 0.37 0.30 0.16 0.30 0.26 0.38 0.27 0.39 0.36 0.30 0.30 0.30 0.27 0.25 0.30 0.22 0.27 0.32 0.35 0.37 0.31 0.23 0.22 0.21 0.22 0.25 0.24 0.18 0.23 0.27 0.28 0.28 0.28 0.25 0.23 0.26 0.27 0.25 0.26 0.21 0.21 0.22 0.22 0.22 0.21 0.20 0.18 0.18 0.19 0.20 0.17 0.15 0.17 0.19 0.13 0.15 0.29 0.33 0.44 0.39 0.39 0.45 0.52 0.57 0.62 0.66 0.67 0.68 0.73 0.77 0.82
0.57 0.56 0.54 0.49 0.46 0.42 0.40 0.47 0.47 0.54 0.61 0.64 0.60 0.54 0.52 0.45 0.39 0.28 0.21 0.14 0.33 0.25 0.30 0.35 0.31 0.27 0.30 0.25 0.24 0.24 0.23 0.27 0.26 0.27 0.28 0.29 0.33 0.36 0.33 0.30 0.24 0.24 0.24 0.26 0.24 0.24 0.28 0.31 0.31 0.29 0.27 0.27 0.28 0.27 0.28 0.27 0.25 0.27 0.24 0.21 0.19 0.19 0.18 0.19 0.17 0.16 0.17 0.14 0.15 0.16 0.17 0.15 0.13 0.29 0.37 0.35 0.41 0.51 0.54 0.57 0.62 0.68 0.72 0.75 0.75 0.74 0.78 0.84
0.56 0.54 0.50 0.48 0.38 0.41 0.38 0.30 0.43 0.60 0.67 0.62 0.61 0.52 0.42 0.39 0.27 0.23 0.15 0.19 0.32 0.34 0.33 0.33 0.28 0.30 0.25 0.24 0.21 0.22 0.24 0.26 0.25 0.24 0.23 0.29 0.32 0.33 0.33 0.27 0.29 0.26 0.25 0.24 0.23 0.25 0.27 0.28 0.26 0.28 0.30 0.31 0.29 0.28 0.29 0.29 0.28 0.25 0.22 0.19 0.17 0.15 0.18 0.17 0.16 0.17 0.12 0.11 0.14 0.15 0.14 0.15 0.11 0.33 0.44 0.53 0.62 0.61 0.57 0.52 0.58 0.63 0.69 0.73 0.76 0.79 0.83 0.86
0.54 0.51 0.48 0.44 0.44 0.46 0.32 0.27 0.49 0.64 0.62 0.62 0.59 0.40 0.33 0.23 0.31 0.20 0.16 0.36 0.25 0.32 0.30 0.30 0.31 0.25 0.23 0.25 0.22 0.20 0.22 0.25 0.26 0.23 0.22 0.23 0.26 0.27 0.28 0.24 0.23 0.19 0.19 0.21 0.18 0.25 0.24 0.25 0.27 0.27 0.31 0.30 0.28 0.26 0.27 0.27 0.26 0.23 0.20 0.18 0.13 0.13 0.14 0.12 0.14 0.11 0.11 0.10 0.14 0.16 0.17 0.17 0.23 0.40 0.51 0.57 0.61 0.63 0.61 0.62 0.64 0.65 0.67 0.70 0.72 0.77 0.84 0.89
0.51 0.48 0.46 0.44 0.45 0.39 0.37 0.41 0.53 0.55 0.54 0.60 0.44 0.35 0.28 0.22 0.15 0.21 0.23 0.28 0.27 0.39 0.33 0.36 0.31 0.28 0.26 0.24 0.23 0.22 0.26 0.22 0.25 0.22 0.24 0.23 0.25 0.26 0.29 0.27 0.27 0.22 0.17 0.21 0.20 0.21 0.22 0.27 0.26 0.25 0.30 0.31 0.30 0.24 0.23 0.22 0.22 0.20 0.17 0.16 0.13 0.12 0.12 0.10 0.12 0.13 0.13 0.14 0.16 0.15 0.18 0.17 0.39 0.47 0.58 0.57 0.63 0.66 0.65 0.68 0.72 0.70 0.70 0.70 0.74 0.79 0.84 0.89
0.49 0.47 0.40 0.41 0.42 0.41 0.39 0.46 0.53 0.49 0.47 0.50 0.33 0.26 0.31 0.20 0.16 0.28 0.26 0.29 0.32 0.37 0.36 0.34 0.32 0.32 0.30 0.23 0.23 0.23 0.22 0.25 0.24 0.21 0.24 0.22 0.24 0.23 0.25 0.26 0.27 0.24 0.23 0.23 0.18 0.20 0.17 0.18 0.22 0.24 0.24 0.31 0.28 0.27 0.27 0.25 0.22 0.19 0.21 0.18 0.15 0.14 0.12 0.10 0.11 0.10 0.10 0.11 0.14 0.19 0.14 0.18 0.22 0.36 0.63 0.68 0.72 0.72 0.73 0.73 0.75 0.77 0.77 0.78 0.79 0.80 0.82 0.84
0.48 0.44 0.43 0.41 0.41 0.41 0.40 0.46 0.51 0.49 0.50 0.39 0.27 0.25 0.19 0.17 0.26 0.25 0.26 0.28 0.32 0.32 0.32 0.35 0.32 0.30 0.28 0.29 0.26 0.24 0.25 0.22 0.26 0.22 0.21 0.20 0.19 0.22 0.20 0.20 0.24 0.25 0.25 0.20 0.21 0.21 0.20 0.19 0.23 0.25 0.26 0.30 0.27 0.29 0.30 0.26 0.23 0.22 0.22 0.22 0.18 0.15 0.18 0.13 0.15 0.13 0.13 0.14 0.14 0.18 0.21 0.35 0.34 0.62 0.70 0.76 0.76 0.74 0.76 0.75 0.76 0.75 0.79 0.80 0.79 0.78 0.80 0.83
0.43 0.39 0.44 0.35 0.34 0.37 0.44 0.47 0.50 0.54 0.46 0.32 0.24 0.22 0.20 0.24 0.24 0.33 0.31 0.35 0.31 0.27 0.27 0.29 0.32 0.27 0.27 0.26 0.27 0.27 0.30 0.28 0.26 0.21 0.20 0.19 0.18 0.18 0.22 0.20 0.21 0.23 0.22 0.19 0.22 0.18 0.20 0.18 0.24 0.27 0.29 0.29 0.29 0.30 0.28 0.28 0.17 0.21 0.21 0.17 0.18 0.22 0.19 0.15 0.15 0.18 0.18 0.16 0.14 0.30 0.32 0.40 0.50 0.55 0.65 0.69 0.68 0.69 0.73 0.74 0.76 0.76 0.78 0.79 0.76 0.77 0.79 0.82
0.37 0.39 0.30 0.35 0.37 0.46 0.49 0.47 0.49 0.52 0.43 0.30 0.23 0.19 0.27 0.29 0.38 0.36 0.38 0.33 0.30 0.26 0.23 0.23 0.27 0.27 0.25 0.25 0.27 0.29 0.31 0.32 0.29 0.22 0.19 0.21 0.18 0.20 0.21 0.21 0.21 0.22 0.25 0.24 0.22 0.24 0.19 0.19 0.26 0.26 0.25 0.29 0.30 0.30 0.29 0.29 0.26 0.23 0.17 0.20 0.24 0.26 0.24 0.18 0.13 0.14 0.14 0.13 0.14 0.23 0.24 0.31 0.30 0.28 0.56 0.59 0.57 0.61 0.65 0.68 0.71 0.73 0.74 0.73 0.75 0.78 0.81 0.82
0.36 0.35 0.34 0.31 0.35 0.51 0.48 0.43 0.47 0.49 0.37 0.29 0.23 0.28 0.36 0.30 0.39 0.37 0.37 0.34 0.28 0.24 0.25 0.25 0.25 0.26 0.24 0.25 0.25 0.27 0.31 0.28 0.28 0.25 0.21 0.23 0.22 0.31 0.24 0.24 0.23 0.21 0.23 0.26 0.23 0.22 0.23 0.18 0.24 0.28 0.29 0.29 0.30 0.29 0.28 0.30 0.29 0.24 0.22 0.26 0.20 0.17 0.16 0.20 0.17 0.13 0.13 0.13 0.14 0.21 0.31 0.30 0.31 0.32 0.45 0.49 0.52 0.56 0.61 0.64 0.65 0.67 0.71 0.73 0.76 0.80 0.84 0.87
0.40 0.35 0.29 0.37 0.48 0.52 0.42 0.43 0.48 0.39 0.31 0.24 0.27 0.24 0.31 0.36 0.43 0.40 0.36 0.30 0.27 0.25 0.24 0.25 0.24 0.24 0.26 0.22 0.25 0.23 0.28 0.26 0.28 0.26 0.23 0.25 0.24 0.34 0.32 0.30 0.25 0.31 0.28 0.23 0.21 0.24 0.24 0.20 0.22 0.29 0.28 0.31 0.30 0.28 0.23 0.25 0.28 0.28 0.28 0.24 0.27 0.22 0.20 0.19 0.18 0.18 0.16 0.14 0.15 0.21 0.26 0.23 0.38 0.40 0.45 0.48 0.54 0.57 0.58 0.59 0.61 0.66 0.69 0.71 0.74 0.77 0.79 0.82
0.38 0.41 0.39 0.62 0.63 0.52 0.40 0.47 0.42 0.35 0.28 0.21 0.25 0.26 0.40 0.34 0.35 0.35 0.34 0.31 0.26 0.24 0.22 0.24 0.25 0.23 0.23 0.25 0.26 0.24 0.29 0.30 0.28 0.29 0.28 0.33 0.31 0.42 0.36 0.36 0.33 0.32 0.31 0.26 0.23 0.27 0.23 0.26 0.20 0.27 0.31 0.31 0.27 0.28 0.26 0.27 0.24 0.23 0.23 0.23 0.24 0.23 0.30 0.26 0.25 0.19 0.16 0.15 0.15 0.17 0.19 0.27 0.41 0.55 0.54 0.56 0.60 0.62 0.62 0.61 0.64 0.67 0.71 0.72 0.74 0.75 0.78 0.83
0.51 0.51 0.50 0.75 0.72 0.51 0.46 0.42 0.30 0.25 0.24 0.30 0.32 0.29 0.35 0.34 0.34 0.35 0.34 0.31 0.27 0.27 0.23 0.24 0.24 0.22 0.24 0.25 0.26 0.29 0.27 0.29 0.32 0.32 0.33 0.35 0.36 0.29 0.44 0.41 0.38 0.34 0.36 0.30 0.26 0.27 0.24 0.24 0.22 0.26 0.26 0.31 0.36 0.40 0.40 0.33 0.30 0.26 0.25 0.26 0.29 0.23 0.21 0.19 0.21 0.27 0.22 0.18 0.17 0.16 0.17 0.31 0.50 0.65 0.62 0.61 0.65 0.65 0.67 0.66 0.65 0.66 0.68 0.72 0.76 0.79 0.83 0.84
0.48 0.40 0.49 0.79 0.71 0.56 0.37 0.26 0.28 0.33 0.29 0.25 0.24 0.31 0.31 0.37 0.34 0.31 0.30 0.28 0.25 0.24 0.26 0.25 0.25 0.26 0.26 0.27 0.30 0.30 0.31 0.33 0.37 0.35 0.38 0.33 0.40 0.40 0.45 0.49 0.44 0.44 0.35 0.29 0.27 0.33 0.30 0.27 0.24 0.24 0.30 0.34 0.40 0.45 0.48 0.46 0.42 0.40 0.37 0.33 0.36 0.32 0.26 0.21 0.18 0.23 0.25 0.26 0.27 0.25 0.23 0.32 0.60 0.67 0.66 0.65 0.65 0.65 0.67 0.68 0.64 0.66 0.69 0.71 0.76 0.80 0.82 0.83
0.50 0.47 0.70 0.78 0.75 0.61 0.36 0.24 0.29 0.27 0.23 0.24 0.30 0.31 0.36 0.35 0.32 0.31 0.29 0.27 0.24 0.26 0.25 0.24 0.24 0.25 0.27 0.29 0.31 0.33 0.35 0.34 0.38 0.36 0.41 0.40 0.42 0.46 0.52 0.49 0.47 0.44 0.43 0.37 0.38 0.36 0.39 0.26 0.22 0.27 0.38 0.41 0.44 0.46 0.46 0.46 0.44 0.37 0.39 0.43 0.38 0.32 0.33 0.29 0.26 0.29 0.24 0.27 0.23 0.24 0.22 0.35 0.58 0.71 0.66 0.66 0.67 0.66 0.67 0.68 0.65 0.67 0.69 0.72 0.74 0.76 0.77 0.78
0.53 0.54 0.58 0.79 0.76 0.60 0.33 0.18 0.18 0.19 0.18 0.22 0.24 0.33 0.39 0.38 0.34 0.28 0.29 0.27 0.26 0.25 0.25 0.24 0.26 0.27 0.27 0.32 0.32 0.31 0.34 0.30 0.37 0.37 0.36 0.41 0.42 0.55 0.53 0.50 0.48 0.44 0.42 0.41 0.35 0.40 0.27 0.28 0.24 0.21 0.24 0.31 0.33 0.36 0.38 0.44 0.43 0.41 0.40 0.42 0.43 0.40 0.39 0.38 0.34 0.33 0.24 0.29 0.27 0.23 0.19 0.31 0.56 0.69 0.67 0.66 0.63 0.63 0.64 0.66 0.68 0.65 0.66 0.67 0.69 0.72 0.74 0.77
0.59 0.65 0.63 0.64 0.68 0.52 0.27 0.33 0.33 0.29 0.32 0.30 0.34 0.38 0.37 0.36 0.33 0.32 0.32 0.28 0.29 0.28 0.26 0.25 0.28 0.28 0.28 0.32 0.32 0.34 0.35 0.35 0.32 0.38 0.38 0.40 0.41 0.52 0.53 0.53 0.53 0.48 0.53 0.58 0.51 0.49 0.35 0.33 0.25 0.19 0.17 0.18 0.20 0.22 0.24 0.30 0.35 0.42 0.45 0.44 0.44 0.41 0.36 0.33 0.26 0.27 0.22 0.30 0.30 0.25 0.28 0.41 0.54 0.62 0.62 0.62 0.62 0.62 0.65 0.65 0.67 0.68 0.66 0.65 0.66 0.70 0.73 0.75
0.53 0.39 0.50 0.52 0.54 0.41 0.37 0.44 0.40 0.37 0.36 0.40 0.37 0.37 0.36 0.31 0.31 0.32 0.33 0.30 0.31 0.30 0.27 0.28 0.29 0.29 0.27 0.28 0.30 0.31 0.31 0.35 0.34 0.34 0.35 0.37 0.41 0.47 0.51 0.51 0.53 0.52 0.54 0.54 0.53 0.50 0.40 0.42 0.36 0.30 0.25 0.24 0.28 0.33 0.42 0.45 0.42 0.36 0.42 0.43 0.43 0.45 0.42 0.37 0.34 0.28 0.23 0.30 0.28 0.33 0.34 0.38 0.43 0.50 0.52 0.54 0.57 0.57 0.59 0.62 0.62 0.63 0.65 0.65 0.66 0.69 0.70 0.71
0.59 0.46 0.42 0.33 0.39 0.36 0.37 0.44 0.41 0.43 0.39 0.45 0.33 0.34 0.31 0.31 0.30 0.29 0.33 0.26 0.28 0.28 0.27 0.27 0.26 0.24 0.25 0.25 0.27 0.30 0.31 0.32 0.36 0.36 0.35 0.36 0.41 0.44 0.49 0.53 0.53 0.55 0.55 0.52 0.56 0.49 0.43 0.38 0.41 0.39 0.38 0.37 0.41 0.41 0.47 0.47 0.40 0.44 0.42 0.42 0.45 0.44 0.43 0.37 0.31 0.28 0.37 0.31 0.26 0.40 0.42 0.35 0.39 0.46 0.49 0.51 0.54 0.57 0.59 0.60 0.61 0.63 0.63 0.62 0.64 0.66 0.68 0.69
0.47 0.50 0.52 0.48 0.29 0.23 0.30 0.33 0.39 0.40 0.46 0.45 0.38 0.36 0.32 0.30 0.27 0.24 0.28 0.29 0.28 0.28 0.25 0.25 0.27 0.27 0.26 0.25 0.25 0.24 0.29 0.32 0.34 0.31 0.38 0.39 0.38 0.40 0.40 0.50 0.50 0.54 0.53 0.52 0.57 0.47 0.41 0.37 0.46 0.43 0.42 0.44 0.44 0.44 0.45 0.44 0.44 0.44 0.45 0.45 0.42 0.45 0.43 0.38 0.39 0.41 0.40 0.30 0.28 0.41 0.43 0.38 0.42 0.48 0.52 0.53 0.55 0.57 0.59 0.60 0.61 0.62 0.63 0.63 0.64 0.64 0.63 0.66
0.61 0.53 0.50 0.48 0.33 0.37 0.38 0.38 0.39 0.41 0.42 0.42 0.37 0.33 0.31 0.31 0.27 0.29 0.27 0.25 0.27 0.25 0.27 0.22 0.24 0.25 0.25 0.26 0.26 0.25 0.25 0.24 0.28 0.35 0.34 0.35 0.36 0.35 0.34 0.40 0.48 0.54 0.51 0.49 0.52 0.54 0.45 0.41 0.46 0.45 0.43 0.43 0.45 0.45 0.45 0.41 0.42 0.42 0.44 0.45 0.47 0.46 0.45 0.45 0.44 0.46 0.44 0.39 0.43 0.42 0.44 0.43 0.48 0.51 0.55 0.58 0.61 0.60 0.61 0.63 0.62 0.61 0.61 0.61 0.61 0.61 0.62 0.66
0.53 0.44 0.36 0.45 0.46 0.42 0.43 0.41 0.40 0.39 0.35 0.38 0.33 0.33 0.34 0.31 0.29 0.31 0.30 0.27 0.22 0.24 0.28 0.26 0.25 0.26 0.28 0.29 0.28 0.26 0.29 0.28 0.32 0.28 0.33 0.34 0.32 0.34 0.34 0.37 0.39 0.47 0.50 0.46 0.48 0.51 0.43 0.42 0.47 0.46 0.41 0.43 0.46 0.47 0.48 0.45 0.42 0.38 0.43 0.45 0.47 0.49 0.48 0.49 0.47 0.47 0.47 0.44 0.46 0.45 0.43 0.42 0.51 0.57 0.57 0.61 0.62 0.63 0.61 0.60 0.60 0.61 0.62 0.60 0.61 0.60 0.63 0.65
0.64 0.63 0.57 0.45 0.38 0.42 0.44 0.40 0.37 0.36 0.34 0.34 0.33 0.34 0.33 0.32 0.30 0.32 0.30 0.33 0.29 0.23 0.27 0.28 0.29 0.29 0.30 0.29 0.27 0.27 0.32 0.31 0.32 0.33 0.34 0.33 0.29 0.34 0.29 0.34 0.40 0.36 0.40 0.41 0.44 0.46 0.44 0.43 0.49 0.43 0.35 0.40 0.45 0.45 0.46 0.47 0.43 0.39 0.39 0.41 0.43 0.45 0.42 0.46 0.45 0.49 0.45 0.42 0.45 0.45 0.41 0.41 0.51 0.57 0.59 0.60 0.60 0.59 0.58 0.58 0.58 0.60 0.63 0.63 0.62 0.62 0.62 0.65
0.70 0.74 0.75 0.61 0.44 0.52 0.45 0.47 0.45 0.41 0.33 0.34 0.34 0.33 0.32 0.32 0.34 0.32 0.27 0.32 0.33 0.31 0.30 0.30 0.31 0.30 0.30 0.28 0.26 0.29 0.33 0.33 0.34 0.35 0.35 0.35 0.35 0.34 0.35 0.39 0.41 0.37 0.37 0.37 0.42 0.39 0.41 0.41 0.38 0.38 0.33 0.34 0.42 0.46 0.44 0.43 0.41 0.35 0.37 0.42 0.44 0.45 0.47 0.49 0.51 0.54 0.52 0.52 0.45 0.41 0.41 0.51 0.55 0.58 0.55 0.56 0.57 0.57 0.58 0.58 0.58 0.60 0.62 0.60 0.59 0.61 0.62 0.63
Wind_Speed
28 28 28 27 27 27 26 26 26 25 25 25 25 24 24 24 24 24 24 24 25 25 26 26 26 25 25 25 25 25 24 25 25 24 24 25 24 24 24 23 23 23 22 20 19 18 18 19 19 19 18 16 16 16 16 17 16 14 13 13 14 14 13 12 11 10 9 11 12 11 10 9 10 10 9 8 6 6 6 8 8 8 8 7 7 6 8 9
29 29 28 28 28 27 27 27 27 26 26 26 25 25 25 25 25 25 25 25 25 25 25 26 26 26 26 26 25 25 25 25 25 25 26 26 25 25 25 24 23 22 22 21 21 20 19 19 20 19 18 17 17 17 17 16 16 15 13 14 16 15 13 12 12 11 11 12 13 12 11 10 10 11 10 9 9 8 7 8 7 6 6 6 6 7 8 9
29 29 29 29 29 28 28 28 27 27 27 26 26 26 26 25 25 25 25 25 25 25 25 26 26 26 26 26 25 25 25 25 25 26 26 26 27 26 26 25 23 23 22 21 21 21 20 20 20 19 18 17 17 17 17 16 16 15 14 15 16 15 14 14 13 13 13 12 12 13 13 12 12 12 11 11 10 10 9 10 9 7 7 7 8 9 10 10
30 30 29 29 29 29 29 28 28 28 27 27 27 26 26 26 26 25 25 25 25 25 25 26 26 26 26 26 25 25 24 24 25 25 24 24 25 26 26 25 24 23 22 21 21 21 20 19 19 19 19 18 18 18 17 17 16 15 16 16 16 15 14 15 14 14 14 12 12 13 13 13 13 12 12 12 10 11 12 12 11 9 8 9 10 11 11 11
30 30 29 29 29 29 29 29 28 28 28 28 27 27 27 26 26 26 25 25 25 25 26 26 26 26 26 25 25 24 23 22 23 23 23 23 24 25 26 25 24 23 22 21 21 21 21 19 19 19 19 18 18 17 17 18 17 15 16 17 17 15 14 16 15 15 15 13 12 12 12 13 14 13 13 13 12 13 14 14 12 11 11 11 11 11 11 11
30 30 30 29 29 29 29 29 29 29 28 28 28 28 27 27 26 26 26 25 25 25 26 26 25 26 26 25 25 24 23 23 22 21 21 21 22 24 25 25 24 23 23 22 22 21 21 20 20 20 19 19 18 18 17 18 17 16 17 17 18 17 15 17 15 13 14 13 12 13 14 14 13 14 15 15 15 14 15 14 13 13 12 12 11 11 11 12
30 30 30 30 29 29 29 29 29 29 29 28 28 28 27 27 27 26 26 26 26 25 26 26 25 25 25 25 24 23 24 25 23 21 21 20 21 22 23 24 24 23 23 23 23 22 21 21 21 20 19 19 18 18 18 18 17 18 18 17 18 19 18 18 16 14 14 13 14 14 14 15 15 15 16 16 17 15 15 14 13 13 12 12 12 11 11 12
30 29 30 30 30 30 29 29 29 29 29 28 28 28 27 27 27 26 26 26 26 25 25 26 25 25 25 24 24 23 24 26 25 23 21 21 21 22 22 23 23 23 24 24 24 23 21 21 21 20 19 19 18 17 17 17 17 18 19 18 18 19 19 19 18 16 15 15 15 14 14 17 17 16 16 17 18 15 14 13 13 13 13 13 12 11 11 11
29 30 30 30 30 30 30 29 29 29 29 28 28 28 27 27 27 26 26 26 26 25 25 25 25 25 24 24 24 23 24 25 25 24 23 22 22 22 22 22 23 24 23 24 25 23 21 20 21 20 19 19 18 18 17 16 17 18 19 19 18 18 19 19 17 16 16 15 14 13 14 16 16 15 15 17 17 15 14 14 13 13 14 14 13 11 11 11
29 29 30 30 30 30 30 29 29 29 29 28 28 28 27 27 27 26 26 26 25 25 25 25 25 25 25 25 23 22 24 24 23 24 23 22 22 22 23 22 23 24 23 24 24 23 21 20 20 19 19 19 19 19 18 17 16 17 18 19 19 19 19 18 17 16 15 15 15 13 14 15 14 14 14 15 15 14 13 14 14 14 15 14 13 12 12 12
29 29 30 30 30 30 29 29 29 29 28 28 28 28 27 27 27 26 26 26 25 25 25 25 24 24 24 24 23 23 23 22 22 23 23 23 23 23 23 23 23 24 24 24 24 24 22 20 20 19 19 19 18 18 18 17 15 17 18 18 18 18 18 18 17 16 15 15 14 12 12 14 13 13 14 15 13 12 13 14 15 15 15 14 13 13 12 11
29 29 30 30 30 29 29 29 28 28 28 28 28 27 27 27 27 26 26 25 25 25 25 25 24 24 24 24 25 25 23 22 22 22 23 24 23 23 23 23 23 24 24 24 24 24 22 21 20 20 20 18 17 17 17 17 16 17 17 17 16 15 16 18 18 17 15 15 14 11 11 13 13 13 14 15 13 12 14 15 16 16 15 14 13 13 12 11
29 29 29 29 29 29 28 28 28 28 28 28 27 27 27 27 27 26 26 25 25 25 24 24 24 24 24 23 25 25 24 24 23 23 24 24 24 23 23 22 23 24 24 24 24 23 22 21 21 22 21 19 17 17 17 16 16 16 16 15 15 13 15 17 17 16 15 15 14 11 12 13 12 14 14 14 13 12 14 15 16 16 15 14 13 12 12 11
29 29 28 28 28 28 28 27 27 27 27 27 27 27 27 27 27 26 25 25 24 24 24 24 24 23 23 23 25 25 26 25 25 24 25 25 24 23 23 23 22 24 24 24 24 22 22 21 21 21 20 19 18 17 16 15 15 15 15 14 13 13 13 13 14 15 14 14 13 11 12 13 11 13 14 13 12 11 13 16 16 16 15 14 14 12 11 11
28 28 28 28 27 27 27 27 27 27 27 27 26 26 26 26 26 25 25 24 24 23 23 23 23 23 22 23 24 24 24 24 24 25 24 24 24 22 23 23 22 23 24 24 23 22 22 20 19 19 19 18 17 16 15 14 14 14 14 13 12 13 12 10 12 14 14 13 12 12 12 11 10 11 13 13 12 12 14 16 16 16 16 15 14 13 11 11
27 27 27 27 27 26 26 26 26 26 26 26 26 26 25 26 25 25 24 24 23 23 23 22 22 21 20 21 23 23 23 22 22 24 24 24 24 23 23 23 22 23 24 24 23 23 22 19 19 19 18 18 17 16 15 14 14 13 14 13 12 14 13 10 11 13 14 13 12 13 11 10 9 10 12 12 13 14 15 17 17 16 16 16 15 13 12 11
27 26 26 26 26 25 26 25 25 25 25 25 24 24 24 25 25 24 24 23 22 22 22 21 20 20 20 20 21 21 22 22 22 22 23 24 24 23 23 23 22 23 24 24 23 22 21 19 19 19 18 18 18 16 15 15 15 13 12 12 12 13 13 12 11 11 12 13 14 14 13 11 9 9 10 12 13 14 15 16 17 16 15 15 14 13 12 12
26 26 25 25 25 24 24 24 24 24 23 23 23 23 23 24 24 24 23 22 22 22 22 21 20 19 20 21 20 20 21 22 22 21 23 24 23 23 23 22 22 22 22 23 22 21 20 19 19 19 19 19 18 16 16 16 15 14 13 12 12 13 13 13 12 11 11 13 15 15 15 13 11 10 11 12 11 10 11 14 16 15 15 15 14 14 13 13
25 25 24 24 24 23 23 23 23 22 22 21 21 21 21 22 22 22 22 23 22 21 20 21 22 19 18 20 20 19 20 22 22 21 23 23 23 24 23 22 22 22 21 21 21 21 20 19 19 20 20 20 19 17 17 16 15 15 14 13 13 13 13 14 14 14 13 13 15 16 16 14 12 10 11 12 9 7 8 10 13 14 15 15 14 13 13 13
24 23 23 23 22 22 22 21 21 20 20 19 19 19 20 20 20 20 22 24 24 23 21 21 24 22 18 18 19 18 19 21 22 22 23 23 23 23 22 21 21 21 21 20 20 20 20 20 20 21 20 20 20 19 18 17 16 16 15 13 14 14 14 13 13 15 13 13 15 15 14 14 12 11 11 11 8 6 7 9 12 13 14 15 15 14 13 13
23 22 22 21 21 20 20 20 19 19 19 18 18 19 20 20 19 19 21 23 24 25 24 22 23 23 21 19 19 18 17 20 22 22 23 24 23 22 22 21 20 20 20 20 19 19 20 21 21 20 20 20 20 20 19 18 17 17 16 14 14 14 13 13 13 13 11 12 14 13 12 13 13 11 10 10 8 8 9 10 12 14 15 16 15 15 14 13
21 21 20 20 19 19 19 18 19 18 18 19 19 20 20 20 19 18 18 20 22 24 24 22 22 23 23 22 21 19 18 19 22 22 23 24 24 22 21 21 19 19 19 19 18 18 19 20 20 19 18 19 20 20 19 19 18 17 16 15 15 14 12 12 11 9 8 10 12 12 11 13 13 11 11 10 9 11 12 13 15 15 16 16 16 16 15 14
20 20 19 19 18 18 18 18 18 18 18 19 20 21 20 20 19 17 17 18 19 21 23 22 22 22 23 23 22 21 20 20 21 22 23 24 23 22 22 20 19 19 19 19 19 18 17 18 19 19 18 19 19 19 19 18 18 18 17 15 15 14 11 11 10 8 8 9 10 11 11 12 11 10 10 9 8 9 12 13 16 17 16 16 16 16 16 15
18 18 18 18 17 17 17 17 18 18 18 19 20 21 20 19 18 17 16 17 18 19 21 22 21 21 23 23 21 21 20 20 20 21 23 24 22 22 21 20 19 19 19 20 20 18 17 16 17 18 18 18 19 18 18 18 18 18 17 16 15 14 13 13 12 9 9 9 9 8 9 11 11 9 10 9 7 7 9 10 12 15 15 15 14 14 15 15
17 17 17 17 17 17 16 16 18 18 18 20 20 19 18 18 18 17 16 16 17 18 19 21 20 20 23 23 21 20 19 20 20 21 23 24 22 21 20 20 20 20 20 20 19 18 17 16 16 17 17 17 18 18 18 18 17 17 16 16 16 15 14 13 11 9 9 9 9 8 8 11 11 9 10 9 6 6 8 8 10 13 14 14 14 14 13 13
16 16 16 15 16 16 16 16 17 18 18 19 18 17 17 17 17 17 16 14 16 17 17 19 19 19 23 23 21 20 18 19 20 20 23 23 22 21 19 19 19 19 20 18 17 18 17 17 17 16 16 17 17 17 18 18 17 16 16 16 15 15 14 13 11 10 10 10 10 8 8 10 10 9 10 8 6 6 7 8 10 12 13 14 15 16 15 14
15 15 15 15 15 15 16 16 17 18 19 18 17 16 16 16 16 17 15 13 15 17 17 17 18 18 21 23 22 20 17 18 19 20 23 23 21 20 20 19 19 19 19 17 17 18 18 18 17 17 17 17 17 16 17 17 16 16 16 14 14 14 14 14 12 11 12 12 11 10 9 9 10 10 10 8 6 7 8 8 10 12 13 13 13 14 15 15
15 15 14 15 15 16 16 17 17 19 19 17 15 16 15 15 16 16 15 13 14 16 15 16 17 17 19 22 24 21 16 17 19 20 23 23 21 19 19 19 19 19 19 18 18 18 17 18 17 17 16 17 17 17 17 16 15 16 16 15 15 16 15 15 13 12 13 11 11 12 10 9 10 11 10 8 7 8 9 9 10 10 11 11 10 9 10 13
14 14 14 14 15 16 17 18 19 19 18 16 15 15 15 15 16 15 14 13 13 14 14 15 17 17 18 21 23 22 18 16 17 19 22 23 22 20 18 19 18 17 18 19 18 17 17 17 17 15 16 17 17 17 16 16 15 16 15 14 14 14 14 13 13 13 12 11 13 14 11 10 10 10 10 9 8 9 9 10 10 9 9 9 9 8 7 9
13 14 14 14 15 16 17 18 20 19 17 15 15 15 16 16 16 15 13 13 13 13 13 15 16 17 19 19 20 21 19 16 15 19 22 22 22 20 17 18 18 17 17 18 18 18 18 17 16 16 16 16 16 16 16 16 15 14 13 13 12 12 12 12 12 12 11 12 14 14 11 9 10 10 10 10 10 10 10 9 9 9 8 9 9 8 7 7
13 13 14 15 15 16 17 18 19 18 17 15 15 16 17 17 16 15 13 13 12 12 13 14 15 16 19 19 19 20 19 16 15 18 21 21 21 20 18 18 19 18 17 17 17 17 17 17 16 16 16 15 14 15 15 14 13 12 13 13 12 12 12 11 10 10 10 12 14 13 11 8 9 10 9 8 9 10 9 9 9 9 9 9 9 9 8 8
12 13 14 15 16 17 18 19 18 18 16 15 15 18 18 16 16 15 13 12 12 12 14 15 14 16 18 17 18 18 18 16 16 17 19 19 19 20 19 19 20 18 17 17 17 16 16 17 16 15 15 15 14 14 14 12 11 12 13 13 12 11 11 11 11 10 10 12 12 11 10 8 8 8 8 8 8 8 8 8 9 9 10 10 10 9 9 8
12 12 14 16 17 18 19 19 19 18 16 16 17 18 18 15 15 15 14 12 11 11 12 13 14 15 17 17 16 17 17 16 16 17 18 18 17 19 19 19 20 18 17 17 16 15 15 16 16 15 14 15 15 14 14 13 13 14 14 14 14 12 10 11 11 10 10 11 12 11 10 9 9 8 8 8 7 8 8 8 8 9 9 10 10 9 9 8
11 12 14 16 17 18 19 20 20 18 17 17 18 18 17 15 14 15 14 12 11 9 10 12 14 15 17 16 15 17 17 16 15 16 17 17 17 18 19 19 20 18 16 16 15 16 15 15 16 16 14 14 15 15 14 13 13 15 15 14 15 14 11 11 11 10 11 11 11 10 9 9 10 9 8 7 7 7 7 7 7 8 9 9 9 9 9 10
11 12 14 15 16 18 20 21 21 20 19 19 18 18 17 14 13 14 14 12 10 8 9 12 14 15 16 15 15 17 17 14 14 16 17 17 17 17 17 19 20 18 17 16 15 16 16 16 17 16 15 14 14 14 13 11 13 16 15 13 14 15 13 11 11 11 11 9 9 9 8 9 10 9 8 7 6 7 6 6 7 7 8 8 8 9 10 11
10 12 13 15 16 18 20 22 22 21 20 19 18 18 17 14 14 14 12 11 8 7 9 13 15 15 15 15 14 16 16 13 14 15 16 16 15 15 16 17 19 19 18 17 15 14 14 15 15 15 15 15 14 15 14 12 13 15 15 14 14 13 13 12 11 11 9 9 10 9 9 9 9 9 9 8 7 8 7 6 7 8 8 8 9 9 10 11
10 11 13 15 17 18 21 23 23 22 20 19 18 17 16 14 15 14 11 9 7 6 10 15 16 15 15 15 14 16 16 14 14 14 15 15 13 13 14 14 17 18 19 18 15 14 14 13 14 15 15 16 15 15 14 12 13 14 15 15 13 12 12 11 11 10 9 10 11 9 9 11 11 10 10 8 8 9 8 7 8 8 9 9 9 9 9 10
10 11 12 15 17 19 21 23 23 21 19 17 17 17 16 15 14 12 9 8 6 6 11 14 14 13 14 14 14 16 16 15 15 15 14 14 12 13 13 14 14 16 18 19 16 14 14 13 13 14 15 14 13 13 13 12 12 13 15 15 13 13 13 12 11 10 10 11 10 8 9 11 11 11 10 8 8 9 8 8 8 8 9 9 9 9 9 10
11 12 13 15 18 20 22 23 22 19 17 17 17 17 16 15 13 10 9 8 7 9 12 12 12 12 12 12 12 15 17 17 16 15 14 13 12 12 12 13 14 14 16 20 18 15 14 12 12 13 13 12 11 13 15 14 13 13 13 13 13 13 13 13 12 11 11 11 10 9 9 11 11 11 9 8 9 9 8 8 8 8 8 8 8 8 9 10
13 13 13 15 18 20 22 22 19 18 17 17 18 17 15 14 11 10 10 9 9 11 12 11 11 11 11 10 10 13 17 17 16 15 14 13 12 11 11 12 14 14 14 16 17 16 14 13 12 11 11 10 10 13 15 14 14 15 14 14 13 13 12 12 12 12 11 11 11 10 11 12 11 10 8 7 7 7 6 7 7 7 7 6 7 8 8 8
14 13 13 15 19 21 21 19 17 17 17 17 18 17 14 11 10 10 10 9 10 11 12 12 11 10 10 9 8 11 14 16 15 14 13 13 13 12 11 11 12 13 12 13 14 15 15 15 13 11 10 10 10 10 11 12 13 15 15 14 13 13 12 12 12 12 11 11 11 11 11 11 10 9 8 7 6 6 6 7 6 7 7 6 7 7 7 7
15 14 14 17 20 21 20 17 16 17 18 18 17 16 13 10 10 10 10 9 10 11 11 11 11 10 10 9 8 10 13 13 13 13 13 13 13 12 12 12 12 11 12 13 14 16 15 15 14 11 10 11 11 9 9 10 12 13 13 13 13 12 12 12 12 12 10 10 10 9 9 10 9 8 7 6 6 6 7 7 6 6 6 6 6 7 7 7
15 14 15 18 20 20 18 17 17 18 18 18 16 14 12 11 10 10 10 9 11 12 11 11 11 11 10 9 9 10 12 11 10 11 12 12 12 11 11 12 12 11 11 12 14 15 15 15 15 12 10 11 11 10 9 9 12 13 12 12 12 12 12 12 13 12 10 10 10 9 9 11 9 8 8 6 5 6 7 8 7 6 7 7 7 7 7 7
15 14 15 18 20 19 18 18 19 19 18 17 16 13 12 12 11 11 11 10 11 12 12 11 11 11 10 10 9 9 11 11 10 10 10 11 11 11 10 10 11 11 11 12 14 14 14 15 16 14 12 12 12 11 11 10 11 12 12 11 11 11 11 12 12 11 10 10 11 10 10 11 10 8 7 6 5 5 6 7 7 7 7 8 8 8 8 8
14 14 15 17 19 19 18 18 18 18 17 16 15 13 12 12 12 11 11 10 10 12 13 11 11 11 10 10 9 8 9 11 11 10 9 9 10 10 9 9 11 12 12 12 13 13 13 13 15 15 15 15 14 14 14 12 11 12 11 10 10 10 11 12 12 11 11 11 11 10 11 11 10 8 7 6 6 6 6 7 7 7 7 7 8 8 9 9
14 15 15 16 17 18 17 16 16 15 15 14 13 13 12 11 11 9 9 9 9 11 12 11 10 10 10 10 9 8 8 9 10 10 9 9 9 9 9 9 11 12 11 10 10 12 13 12 12 13 14 15 15 15 14 13 12 12 11 9 9 10 11 11 12 12 12 12 10 10 12 11 10 9 8 8 8 8 8 8 8 7 7 7 8 8 8 7
14 15 16 16 16 17 16 15 15 15 14 13 12 12 11 10 10 9 8 9 9 10 11 11 10 10 10 11 10 9 8 8 9 9 9 9 10 9 8 9 10 11 11 11 11 13 13 12 11 11 11 12 13 13 13 12 12 11 11 10 10 10 9 10 11 12 13 12 11 11 11 11 10 9 9 9 9 9 9 9 9 8 8 8 8 7 7 6
14 15 16 16 16 16 16 15 15 15 13 12 12 11 9 8 8 9 9 9 8 9 10 11 10 10 10 12 12 11 10 9 9 10 10 9 10 9 8 8 10 10 11 12 13 14 14 13 12 11 10 10 11 11 11 11 12 11 10 10 10 9 9 10 11 12 13 12 12 12 11 10 10 9 9 9 9 9 8 8 8 8 8 8 7 7 7 7
14 14 15 15 15 16 15 14 14 14 13 12 11 9 9 8 8 9 10 9 8 8 9 10 10 9 9 11 12 12 12 11 11 11 11 11 11 11 9 9 9 9 11 12 14 15 15 13 13 13 11 10 10 10 9 11 11 11 9 9 9 9 9 10 11 11 11 11 11 12 11 10 11 10 9 9 9 8 8 8 8 8 8 8 7 7 7 7
14 14 14 13 13 13 13 12 13 12 11 11 10 9 9 9 8 9 9 9 9 8 8 8 9 8 7 9 11 11 11 12 12 11 11 11 11 11 11 11 10 9 10 11 13 15 15 15 15 14 12 11 10 9 9 10 10 9 9 9 9 9 8 9 10 11 11 11 11 11 11 12 12 11 10 9 9 9 8 8 8 8 8 7 7 7 7 7
14 14 13 13 13 13 12 12 12 11 9 10 10 9 9 8 8 9 8 7 9 10 10 9 8 8 7 7 9 10 10 11 11 11 11 11 11 11 11 12 12 10 10 11 11 12 14 15 16 14 12 12 12 10 10 10 9 9 8 8 8 9 9 9 9 10 11 12 13 12 12 13 12 11 10 9 9 9 9 9 8 8 8 7 8 8 8 8
14 14 13 14 13 13 12 11 10 10 10 10 10 9 8 7 7 8 8 6 6 8 10 10 9 9 8 7 8 10 10 10 11 11 11 11 10 9 9 11 12 12 11 11 11 11 12 13 14 13 13 13 14 13 10 9 9 8 9 9 9 10 9 8 8 8 9 11 12 13 13 13 12 11 10 9 9 8 8 8 8 8 8 8 8 8 8 8
Wind_Direction
267 267 266 266 266 266 265 265 265 265 266 266 266 266 265 264 264 263 262 261 260 259 257 255 254 254 253 253 253 253 253 251 249 246 241 240 237 235 233 231 232 228 228 231 230 228 226 227 227 226 226 229 231 233 231 229 227 227 228 226 224 219 218 218 223 240 243 247 253 251 251 248 258 267 262 268 269 256 260 264 262 271 272 263 259 235 230 241
267 266 266 266 265 265 265 265 265 265 265 265 265 265 265 264 263 262 262 261 260 259 257 255 254 254 253 253 252 253 252 250 248 245 241 240 236 233 231 231 230 225 225 228 228 225 224 225 225 223 224 228 229 230 230 228 224 223 225 223 219 213 217 222 229 248 249 246 254 254 253 252 253 260 261 261 262 256 258 265 261 260 260 250 242 233 235 239
268 266 266 265 265 265 264 264 264 264 264 264 264 264 264 264 263 262 262 261 260 259 257 255 254 253 253 252 252 252 251 248 247 244 242 241 235 231 230 229 226 223 224 226 226 224 223 223 222 220 223 227 228 229 230 228 226 223 223 222 217 214 224 232 235 247 248 246 256 259 255 257 258 261 261 253 253 255 251 256 258 253 247 240 239 237 236 240
268 266 266 265 265 264 264 264 264 264 264 264 264 264 264 263 263 262 261 260 260 258 257 255 253 252 252 252 252 250 248 247 244 240 241 240 233 228 227 225 224 223 225 225 224 224 225 224 222 221 222 226 228 228 229 228 227 224 219 218 217 218 227 234 237 245 250 250 253 257 259 261 261 261 261 254 255 260 254 253 251 242 235 234 238 239 238 241
268 266 265 265 264 264 264 264 264 263 263 263 263 263 263 262 262 261 261 260 259 258 256 254 252 251 251 251 250 246 244 243 241 237 237 238 230 225 223 222 223 223 224 223 223 223 225 225 224 226 225 226 226 226 229 227 226 226 222 221 224 227 232 238 242 246 251 254 253 257 259 258 259 260 260 258 257 256 256 256 248 238 236 237 237 238 239 243
267 265 264 264 263 263 263 263 263 263 263 262 262 262 262 261 261 261 260 259 258 257 255 254 252 250 250 250 246 241 238 238 239 234 233 233 226 221 220 220 221 222 222 221 221 222 224 225 226 227 225 226 224 222 225 225 224 224 224 226 230 230 233 239 244 246 246 248 250 252 254 255 259 260 258 257 255 255 259 256 245 242 244 241 238 238 242 247
266 264 263 263 263 263 263 263 263 263 262 262 261 261 261 260 260 260 259 258 257 256 255 253 251 249 249 247 242 239 237 237 237 232 230 229 224 220 219 219 220 221 220 219 219 220 222 223 225 225 224 224 222 220 224 225 224 222 223 227 231 232 233 239 244 245 243 243 246 248 252 255 257 258 259 259 258 258 259 252 241 243 244 241 242 244 249 253
265 264 263 263 263 263 263 263 262 262 262 261 260 260 260 259 259 258 258 257 256 255 254 251 249 248 246 243 239 238 237 236 235 230 229 226 223 220 218 219 220 220 219 218 217 218 221 223 225 223 221 222 219 217 222 228 227 222 223 228 232 234 235 240 244 243 246 248 247 247 252 256 256 257 258 259 261 258 249 242 238 239 241 241 244 248 252 255
265 264 263 263 263 262 262 262 262 261 261 260 259 259 259 258 257 257 256 256 255 254 252 250 248 246 243 240 237 238 237 234 232 228 226 223 222 220 218 220 220 219 218 218 216 217 221 222 222 221 218 221 220 218 221 228 228 220 223 230 233 236 237 240 243 243 247 249 245 248 256 260 258 258 259 257 258 250 238 237 238 238 240 242 247 251 253 254
266 264 263 263 262 262 261 261 261 260 259 259 258 258 257 257 256 255 254 254 253 252 250 248 246 242 240 238 234 235 235 232 228 224 221 220 221 220 220 221 219 217 217 216 215 215 218 219 220 219 219 221 221 221 223 225 229 227 230 236 237 239 241 240 242 244 246 247 247 249 257 261 258 258 260 258 254 242 232 235 237 237 239 242 247 254 257 256
266 265 263 262 262 261 261 260 260 259 258 258 257 256 256 255 254 253 253 252 251 250 248 246 244 239 237 235 231 232 232 228 225 222 219 220 221 221 222 221 218 215 214 213 213 213 214 218 220 219 220 221 222 225 225 225 234 238 237 239 239 240 242 240 240 242 243 246 247 245 254 261 261 258 256 255 252 238 229 233 235 237 239 242 247 255 259 256
266 265 263 262 261 261 260 259 258 258 257 256 255 254 254 253 252 252 251 250 249 247 245 243 240 236 234 234 231 230 229 225 223 222 221 220 221 222 220 219 217 213 211 210 210 211 213 217 219 220 221 221 223 226 228 231 238 240 236 237 239 240 241 239 238 239 240 244 241 244 262 266 261 258 254 253 251 237 230 233 235 236 241 244 248 253 255 254
266 265 263 262 261 260 259 258 257 256 256 255 254 253 252 252 250 250 249 248 246 244 242 239 237 234 232 232 230 228 227 226 225 225 223 221 221 221 217 215 215 212 210 207 208 211 214 218 219 221 222 221 221 225 231 235 235 234 232 232 237 241 241 237 237 239 241 241 235 239 260 264 259 257 255 254 249 235 229 233 236 240 243 245 248 250 250 250
266 265 263 261 260 259 258 257 256 255 255 254 253 251 250 249 248 248 246 245 243 240 238 235 233 231 230 230 229 228 229 228 227 226 222 220 219 218 214 212 212 211 209 207 209 213 217 221 221 219 221 220 221 226 231 231 229 228 230 232 232 233 237 235 232 234 238 237 227 230 253 261 261 259 257 255 246 233 230 233 238 241 242 243 244 243 245 250
266 265 263 261 259 258 257 256 255 254 253 253 251 250 249 247 246 244 242 240 238 236 233 232 230 228 230 231 229 228 228 225 222 221 218 215 215 214 211 210 210 209 207 208 212 216 219 222 219 217 219 220 220 221 224 225 226 224 225 233 231 224 232 238 229 224 228 235 224 222 247 263 262 258 256 256 248 238 233 234 237 239 239 240 239 238 242 251
265 264 262 260 259 257 256 254 254 253 252 251 249 248 246 245 243 240 238 235 233 231 228 227 226 225 228 229 227 227 225 219 215 215 213 211 212 211 208 208 209 209 209 211 215 218 220 219 217 216 216 216 215 214 219 224 225 224 220 225 226 222 228 237 234 225 225 233 229 225 242 260 261 257 255 258 258 247 238 236 235 235 237 235 233 236 242 249
264 263 262 260 257 256 254 253 252 251 250 249 248 246 244 242 238 235 233 229 227 225 222 222 221 223 226 226 226 225 219 214 212 211 208 208 209 208 206 207 209 209 210 213 216 217 217 216 216 216 214 213 214 212 215 221 223 223 220 220 223 222 225 232 239 237 231 233 233 231 239 251 263 267 264 271 271 255 238 231 231 233 233 232 233 238 244 249
264 262 260 258 256 253 252 251 250 249 248 247 246 244 240 237 233 229 226 222 220 218 219 220 217 219 224 222 220 217 213 211 210 208 204 205 207 206 204 206 208 207 208 212 215 215 215 216 215 216 216 214 214 211 213 217 215 213 213 216 226 229 229 233 240 244 240 236 232 232 237 248 267 274 273 281 277 256 236 223 224 229 228 228 233 240 247 251
263 260 258 255 253 251 249 248 247 246 245 243 241 238 233 228 225 223 220 216 214 214 217 217 212 213 218 215 212 213 212 209 207 205 202 203 205 205 205 206 206 205 206 209 214 214 212 215 216 215 216 215 214 210 210 213 209 209 212 217 230 237 236 237 242 247 244 237 233 231 234 244 261 268 270 282 276 248 240 228 223 225 226 232 239 246 250 249
261 257 255 252 250 248 246 245 243 241 240 237 233 228 222 219 218 218 216 215 215 216 219 215 210 214 216 210 208 210 209 206 205 205 203 203 203 203 205 205 204 205 206 206 211 214 210 212 216 215 215 213 214 211 210 213 212 215 221 228 238 241 241 243 250 255 245 234 234 231 231 240 255 262 262 272 272 246 236 238 239 235 234 241 245 247 249 246
257 255 252 249 246 245 243 241 239 236 233 229 225 220 216 215 214 214 215 216 218 220 221 216 211 216 218 213 209 209 207 205 204 204 203 202 200 200 203 203 202 205 207 203 207 211 208 212 216 214 213 212 213 212 211 215 218 222 226 233 241 240 244 249 257 264 246 227 234 230 229 241 250 258 259 263 268 255 235 233 244 247 245 246 245 244 245 244
253 252 249 246 243 241 239 237 234 231 228 223 219 216 215 214 212 215 217 218 220 219 219 217 214 218 219 217 215 212 209 206 203 204 202 199 199 199 200 200 201 203 203 201 204 209 209 214 215 212 210 210 213 213 212 216 220 223 224 230 238 236 242 251 253 258 236 222 231 229 231 245 251 260 267 270 268 261 252 241 239 242 246 247 244 244 244 242
250 248 245 242 240 238 236 234 231 227 223 218 214 212 212 212 213 219 219 218 220 217 214 214 213 216 217 216 213 208 208 205 201 202 200 196 198 198 199 199 200 201 201 201 201 203 208 214 213 209 207 208 214 214 212 216 221 221 221 227 236 233 234 242 242 242 234 229 229 226 234 247 258 271 275 280 284 274 268 255 243 242 246 248 247 245 242 239
246 243 240 238 237 234 234 234 228 220 215 213 211 209 210 213 215 219 218 215 217 214 211 210 209 212 212 209 205 200 204 204 199 201 199 195 196 196 199 200 198 201 203 202 200 202 210 210 203 204 205 205 211 213 209 212 219 221 222 225 230 228 227 232 236 240 245 246 236 228 242 251 261 274 273 281 298 292 283 270 255 254 255 255 257 254 248 246
242 239 237 235 232 230 232 229 218 211 211 210 208 208 211 215 214 212 212 213 214 209 206 205 204 208 205 200 200 198 200 202 199 198 196 195 195 195 199 200 199 203 204 202 201 205 212 205 194 198 205 204 207 212 209 208 216 225 227 225 222 222 227 233 236 237 243 249 243 233 241 252 259 267 269 278 295 298 295 286 275 275 270 262 259 256 253 254
238 237 235 231 228 227 225 216 208 208 209 205 204 207 211 210 207 205 205 209 211 204 198 197 198 202 198 195 197 195 197 202 198 194 193 194 195 194 198 201 201 203 202 200 203 206 204 198 194 199 205 205 209 213 210 207 213 225 229 223 220 223 230 235 235 232 230 236 244 239 230 243 259 270 276 283 291 295 299 291 285 289 288 280 269 259 251 251
236 234 231 227 223 220 214 207 205 204 201 200 204 207 206 203 201 199 198 204 208 200 194 194 196 196 194 193 192 189 195 199 195 193 194 194 194 193 198 201 201 202 199 198 205 205 200 198 200 203 208 211 214 216 210 206 212 224 226 221 222 227 230 233 232 230 232 235 248 253 239 241 257 271 282 288 287 291 299 295 290 293 295 296 288 270 254 249
233 230 226 223 218 214 210 207 204 200 199 203 205 203 201 200 197 192 192 197 197 192 192 194 194 193 192 191 190 192 197 195 194 197 195 194 194 192 197 200 199 199 198 198 204 204 200 202 204 206 211 216 218 218 212 207 215 225 226 223 226 226 226 233 232 231 236 237 245 255 251 249 259 270 277 277 275 281 289 292 293 297 299 301 304 290 264 253
229 225 221 218 214 210 206 201 199 198 201 204 203 200 198 195 190 186 189 193 190 189 190 189 190 191 190 187 190 197 199 194 196 196 192 195 197 195 199 201 198 199 201 201 205 207 205 206 207 208 215 220 221 220 212 208 217 225 225 225 226 221 222 232 231 230 239 238 238 248 251 249 260 275 275 266 267 270 275 284 290 298 305 306 310 307 284 263
224 221 217 213 207 203 200 198 198 199 199 200 199 196 192 187 184 183 188 193 191 188 187 185 187 189 187 186 190 197 197 194 194 192 191 197 198 196 201 201 198 201 206 208 209 211 212 214 216 214 216 219 215 214 211 210 217 223 222 222 223 222 222 229 231 230 239 242 239 244 246 244 256 275 276 266 265 264 265 277 287 295 305 308 309 309 300 282
220 217 212 207 202 197 196 195 193 191 191 194 195 189 184 182 183 184 185 188 188 184 182 184 186 186 184 185 189 193 194 195 194 189 192 198 199 199 202 201 201 203 209 213 212 213 215 218 220 217 216 213 206 210 216 219 221 217 214 215 219 224 223 227 235 231 232 241 244 243 243 244 249 260 270 267 265 265 264 272 280 286 295 301 304 306 302 292
216 213 209 206 201 196 193 189 186 186 187 189 189 182 178 180 185 188 186 184 183 183 184 184 184 185 184 183 186 191 192 194 195 193 194 198 201 202 202 202 203 204 210 214 213 215 218 217 217 220 220 210 203 211 221 226 222 210 208 209 211 219 221 226 235 231 229 238 240 237 236 240 240 248 261 264 264 267 265 268 275 281 291 297 299 300 299 293
212 210 208 205 200 195 194 190 188 188 186 186 183 179 177 181 187 188 185 180 175 177 182 183 183 183 182 184 188 191 191 192 194 194 195 197 198 203 205 205 203 202 208 210 210 215 219 220 219 220 223 214 204 208 215 219 215 206 208 209 207 211 218 227 233 231 235 241 240 237 235 230 231 246 260 260 262 266 266 270 276 281 288 294 296 298 297 294
210 208 204 201 197 196 194 190 189 187 185 183 179 177 179 183 186 185 182 177 171 176 183 182 182 182 183 187 189 187 188 193 191 188 193 195 196 202 207 206 202 201 204 206 208 209 210 218 218 215 218 216 207 205 206 209 211 209 210 210 210 213 216 222 227 225 231 241 244 244 238 226 225 239 252 251 258 268 271 276 280 284 289 293 300 303 300 297
207 202 198 195 193 193 191 188 187 184 182 180 177 177 181 183 182 178 178 177 175 185 192 185 181 180 183 187 187 185 185 189 189 186 190 195 196 200 203 205 204 200 201 205 208 207 206 217 220 214 211 208 204 208 207 206 214 214 209 210 216 217 216 220 225 221 222 232 239 235 232 227 220 226 241 249 261 271 274 279 284 288 291 293 299 302 299 297
197 191 190 189 187 186 184 183 182 181 181 179 177 180 182 182 179 173 172 175 177 193 198 188 180 176 179 181 183 186 185 184 185 185 190 192 194 198 200 204 203 200 200 203 206 206 206 218 221 211 208 209 206 210 213 213 216 214 209 213 217 214 212 218 226 227 222 228 237 227 216 221 223 231 248 258 265 270 272 276 280 284 289 294 294 295 296 296
186 182 185 186 183 179 177 177 177 178 179 177 177 182 184 181 177 174 173 176 188 202 189 179 175 175 179 181 184 187 185 186 184 184 188 190 194 199 200 203 202 200 200 200 205 207 203 216 221 208 210 219 213 208 214 216 208 205 209 214 215 214 216 217 222 230 227 229 240 233 213 218 230 241 252 262 268 270 270 271 276 284 290 293 292 292 294 296
178 178 180 181 177 174 173 173 174 175 175 175 178 182 181 176 174 177 181 183 191 182 167 165 169 174 177 182 191 191 185 189 189 183 184 186 193 200 200 202 203 203 201 198 204 209 201 210 221 210 208 217 212 205 213 221 213 206 210 213 211 216 224 223 220 224 224 226 236 237 225 227 237 245 252 263 269 268 269 272 277 285 289 290 292 295 296 295
172 172 171 170 169 168 169 170 172 174 173 175 179 177 175 176 180 192 197 192 182 167 164 168 171 172 172 177 193 192 185 187 188 185 185 185 191 197 199 201 202 207 204 196 201 208 201 202 214 214 210 209 208 207 210 217 218 212 212 216 217 218 222 223 221 219 219 224 229 230 234 238 242 250 256 262 266 266 268 271 275 282 288 294 298 299 297 294
168 168 166 164 164 163 166 168 170 172 173 175 176 173 174 178 185 197 197 189 182 173 172 177 173 171 175 180 190 190 184 183 184 186 189 189 188 190 198 201 201 206 204 196 200 206 204 203 207 214 214 205 208 213 210 210 212 212 213 218 224 227 225 221 221 220 217 220 225 226 236 242 244 249 251 253 259 262 263 266 274 284 293 304 308 304 300 297
166 164 164 163 162 162 164 167 170 172 172 173 171 171 177 181 185 194 193 185 183 178 174 174 169 167 173 177 183 183 180 181 184 185 187 190 188 190 200 203 200 203 203 199 203 205 205 206 205 208 204 194 197 204 204 205 206 207 211 217 222 225 223 218 222 227 221 220 223 223 233 243 244 245 246 250 257 263 270 273 278 294 304 311 312 307 304 304
166 164 161 161 162 162 163 167 170 170 169 169 170 175 183 186 186 190 188 178 176 176 174 172 168 166 167 171 174 170 168 174 182 184 186 190 191 195 204 205 200 200 200 202 207 206 205 203 202 203 196 188 190 192 195 204 204 202 210 219 221 223 222 216 221 227 225 227 228 225 233 239 238 241 242 248 260 272 287 288 287 299 308 313 313 308 308 309
164 164 161 162 165 163 160 164 168 168 169 171 175 185 193 189 183 182 178 171 171 173 174 172 170 168 166 166 168 167 166 169 176 180 185 192 196 203 209 205 201 202 201 204 208 208 206 203 201 203 199 196 201 204 207 215 213 209 216 223 223 225 223 216 219 222 223 232 230 226 237 238 235 242 243 246 262 277 290 294 294 297 300 305 308 307 309 311
162 163 162 164 167 165 160 162 166 169 172 175 179 188 193 187 183 180 176 174 176 176 173 173 175 175 171 167 168 173 177 178 180 182 185 192 201 209 212 205 203 206 206 206 207 207 208 208 203 202 205 208 214 219 223 226 220 215 220 228 229 230 226 222 225 225 227 234 226 220 232 233 227 232 238 246 258 271 287 294 296 295 294 298 299 298 301 306
159 160 161 163 166 165 163 164 166 168 172 176 181 185 181 176 177 177 175 179 186 182 176 177 180 179 178 174 172 177 183 185 189 192 193 195 201 209 210 207 208 211 210 210 209 206 206 209 208 206 208 211 213 218 222 223 222 218 222 232 233 233 231 226 226 227 228 232 229 223 223 220 219 226 238 251 257 264 282 291 293 293 294 297 299 298 299 304
156 157 159 160 162 165 167 169 167 168 170 171 177 178 171 171 178 178 176 181 189 188 184 186 189 187 187 185 183 186 188 191 193 196 200 203 207 215 215 209 211 214 213 215 214 208 204 208 211 206 205 209 211 216 219 218 218 217 222 232 234 235 234 224 224 228 223 223 233 232 217 210 220 235 245 255 260 265 276 283 286 286 287 296 303 305 304 307
152 156 157 158 161 163 168 171 168 167 169 169 173 176 173 178 186 187 185 186 188 188 189 194 195 194 196 196 198 203 203 202 200 199 205 209 211 219 220 210 212 214 213 219 222 213 206 208 214 207 201 206 211 214 218 217 216 215 220 230 234 237 236 228 228 229 221 219 230 229 217 214 226 237 245 253 257 262 269 277 279 279 282 290 297 303 307 310
149 154 157 156 158 161 164 168 168 169 173 173 175 177 176 178 183 187 192 192 188 188 191 200 204 202 202 200 201 209 211 210 212 210 211 214 215 220 222 215 216 213 212 220 223 215 207 210 216 209 200 203 209 212 215 216 217 220 223 230 235 238 238 234 231 228 223 225 224 217 215 222 229 235 245 251 254 257 262 269 272 276 284 288 291 298 303 306
150 155 156 154 157 161 163 165 167 168 173 177 178 180 178 177 182 188 191 189 190 193 191 198 209 209 209 206 202 210 216 214 216 219 218 220 220 218 216 216 219 216 213 218 221 216 211 213 217 210 201 204 210 213 216 216 217 221 225 229 232 234 236 234 230 227 226 226 221 213 213 225 233 238 244 247 249 251 255 267 275 283 288 288 289 295 299 303
150 153 155 153 156 160 160 161 165 166 172 177 179 182 181 178 181 187 188 183 188 198 193 191 201 201 203 206 203 212 221 213 211 217 217 216 218 217 217 216 216 219 218 216 219 220 215 214 217 213 206 210 214 212 214 214 211 213 222 229 231 230 235 237 235 234 229 221 219 218 219 227 236 240 242 246 250 253 260 270 277 284 288 287 288 291 293 300
151 153 153 152 155 157 156 159 163 165 175 178 175 180 183 182 183 180 181 181 182 190 190 185 190 195 196 199 200 209 217 210 208 212 210 209 214 216 218 216 211 211 215 213 215 218 214 212 216 217 211 212 214 210 208 208 205 207 217 226 228 226 228 232 235 236 230 221 220 225 228 231 235 237 242 249 253 257 264 267 268 273 278 281 282 286 288 291
151 150 151 151 154 157 157 162 162 162 172 175 169 171 174 176 180 173 173 182 179 182 186 183 187 194 194 196 202 206 209 208 209 213 211 212 216 217 217 215 210 209 210 210 208 210 209 206 209 213 211 209 212 213 212 211 211 219 226 226 221 218 218 225 232 235 232 227 227 230 231 230 231 234 240 248 252 256 262 265 265 265 270 274 275 280 284 286